| time (UTC) | temp F | wind direction | speed MPH | gust MPH | rain 1hr in | rain 24hr in | rain mn in | humidity % | barometer mb |
| 20260510133806 | 63 | 230 | 0.0 | 0.0 | 0.00 | 0.00 | 0.00 | 42 | 1012.8 |
| 20260510133302 | 62 | 230 | 0.0 | 0.0 | 0.00 | 0.00 | 0.00 | 42 | 1012.7 |
| 20260510132757 | 61 | 236 | 0.0 | 0.0 | 0.00 | 0.00 | 0.00 | 46 | 1012.8 |
| 20260510132256 | 61 | 223 | 0.0 | 1.0 | 0.00 | 0.00 | 0.00 | 47 | 1012.7 |
| 20260510131752 | 61 | 226 | 0.0 | 1.0 | 0.00 | 0.00 | 0.00 | 46 | 1012.7 |
| 20260510131250 | 60 | 219 | 0.0 | 0.0 | 0.00 | 0.00 | 0.00 | 46 | 1012.7 |
| 20260510130746 | 60 | 231 | 0.0 | 0.0 | 0.00 | 0.00 | 0.00 | 46 | 1012.6 |
| 20260510130244 | 60 | 206 | 1.0 | 1.0 | 0.00 | 0.00 | 0.00 | 47 | 1012.5 |
| 20260510125740 | 60 | 211 | 1.0 | 1.0 | 0.00 | 0.00 | 0.00 | 48 | 1012.4 |
| 20260510125236 | 59 | 215 | 1.0 | 1.0 | 0.00 | 0.00 | 0.00 | 47 | 1012.4 |
| 20260510124732 | 59 | 216 | 2.0 | 2.0 | 0.00 | 0.00 | 0.00 | 48 | 1012.7 |
| 20260510124231 | 60 | 201 | 2.0 | 2.0 | 0.00 | 0.00 | 0.00 | 48 | 1012.6 |
| 20260510123725 | 60 | 203 | 0.0 | 0.0 | 0.00 | 0.00 | 0.00 | 48 | 1012.4 |
| 20260510123222 | 60 | 204 | 0.0 | 0.0 | 0.00 | 0.00 | 0.00 | 47 | 1012.5 |
| 20260510122718 | 60 | 205 | 0.0 | 0.0 | 0.00 | 0.00 | 0.00 | 45 | 1012.2 |
| 20260510122215 | 60 | 221 | 0.0 | 0.0 | 0.00 | 0.00 | 0.00 | 46 | 1012.4 |
| 20260510121711 | 60 | 223 | 0.0 | 0.0 | 0.00 | 0.00 | 0.00 | 43 | 1012.4 |
| 20260510121209 | 60 | 229 | 0.0 | 0.0 | 0.00 | 0.00 | 0.00 | 44 | 1012.4 |
| 20260510120705 | 59 | 228 | 0.0 | 0.0 | 0.00 | 0.00 | 0.00 | 46 | 1012.2 |
| 20260510120202 | 59 | 214 | 0.0 | 1.0 | 0.00 | 0.00 | 0.00 | 48 | 1012.2 |
| 20260510115658 | 60 | 98 | 2.0 | 2.0 | 0.00 | 0.00 | 0.00 | 46 | 1012.1 |
| 20260510115156 | 60 | 242 | 0.0 | 0.0 | 0.00 | 0.00 | 0.00 | 44 | 1012.1 |
| 20260510114651 | 61 | 242 | 0.0 | 0.0 | 0.00 | 0.00 | 0.00 | 42 | 1012.1 |
| 20260510114148 | 61 | 254 | 0.0 | 0.0 | 0.00 | 0.00 | 0.00 | 42 | 1012.1 |
| 20260510113643 | 62 | 238 | 1.0 | 2.0 | 0.00 | 0.00 | 0.00 | 42 | 1012.1 |
| 20260510113140 | 61 | 232 | 2.0 | 2.0 | 0.00 | 0.00 | 0.00 | 41 | 1012.4 |
| 20260510112637 | 60 | 215 | 2.0 | 2.0 | 0.00 | 0.00 | 0.00 | 46 | 1012.0 |
| 20260510112134 | 60 | 194 | 2.0 | 2.0 | 0.00 | 0.00 | 0.00 | 48 | 1012.4 |
| 20260510111630 | 61 | 217 | 0.0 | 0.0 | 0.00 | 0.00 | 0.00 | 46 | 1012.0 |
| 20260510111126 | 62 | 218 | 1.0 | 1.0 | 0.00 | 0.00 | 0.00 | 43 | 1012.0 |
| 20260510110622 | 62 | 223 | 1.0 | 1.0 | 0.00 | 0.00 | 0.00 | 45 | 1012.1 |
| 20260510110119 | 62 | 228 | 0.0 | 0.0 | 0.00 | 0.00 | 0.00 | 46 | 1012.2 |
| 20260510105615 | 62 | 218 | 1.0 | 2.0 | 0.00 | 0.00 | 0.00 | 47 | 1012.1 |
| 20260510105109 | 62 | 236 | 0.0 | 0.0 | 0.00 | 0.00 | 0.00 | 47 | 1011.9 |
| 20260510104606 | 62 | 232 | 0.0 | 0.0 | 0.00 | 0.00 | 0.00 | 47 | 1011.9 |
| 20260510104103 | 62 | 240 | 0.0 | 0.0 | 0.00 | 0.00 | 0.00 | 47 | 1011.8 |
| 20260510103600 | 62 | 240 | 0.0 | 0.0 | 0.00 | 0.00 | 0.00 | 48 | 1012.0 |
| 20260510103056 | 62 | 240 | 0.0 | 0.0 | 0.00 | 0.00 | 0.00 | 48 | 1012.0 |
| 20260510102551 | 62 | 240 | 0.0 | 0.0 | 0.00 | 0.00 | 0.00 | 51 | 1012.0 |
| 20260510102047 | 62 | 240 | 0.0 | 0.0 | 0.00 | 0.00 | 0.00 | 50 | 1011.8 |
| 20260510101545 | 62 | 240 | 0.0 | 0.0 | 0.00 | 0.00 | 0.00 | 50 | 1011.7 |
| 20260510101044 | 62 | 240 | 0.0 | 0.0 | 0.00 | 0.00 | 0.00 | 50 | 1012.0 |
| 20260510100539 | 63 | 240 | 0.0 | 0.0 | 0.00 | 0.00 | 0.00 | 49 | 1011.6 |
| 20260510100037 | 63 | 241 | 0.0 | 0.0 | 0.00 | 0.00 | 0.00 | 48 | 1011.9 |
| 20260510095533 | 63 | 240 | 0.0 | 0.0 | 0.00 | 0.00 | 0.00 | 47 | 1012.0 |
| 20260510095032 | 63 | 241 | 0.0 | 0.0 | 0.00 | 0.00 | 0.00 | 48 | 1011.8 |
| 20260510094527 | 63 | 240 | 0.0 | 0.0 | 0.00 | 0.00 | 0.00 | 48 | 1011.9 |
| 20260510094023 | 63 | 240 | 0.0 | 0.0 | 0.00 | 0.00 | 0.00 | 48 | 1011.8 |
| 20260510093519 | 63 | 241 | 0.0 | 0.0 | 0.00 | 0.00 | 0.00 | 46 | 1011.7 |
| 20260510093015 | 64 | 240 | 0.0 | 0.0 | 0.00 | 0.00 | 0.00 | 46 | 1011.7 |
| 20260510092513 | 63 | 240 | 0.0 | 0.0 | 0.00 | 0.00 | 0.00 | 46 | 1011.9 |
| 20260510092011 | 63 | 243 | 0.0 | 0.0 | 0.00 | 0.00 | 0.00 | 47 | 1011.8 |
| 20260510091509 | 63 | 246 | 0.0 | 0.0 | 0.00 | 0.00 | 0.00 | 48 | 1012.0 |
| 20260510091005 | 63 | 244 | 0.0 | 0.0 | 0.00 | 0.00 | 0.00 | 48 | 1012.0 |
| 20260510090503 | 63 | 241 | 0.0 | 0.0 | 0.00 | 0.00 | 0.00 | 48 | 1011.8 |
| 20260510085958 | 64 | 255 | 0.0 | 0.0 | 0.00 | 0.00 | 0.00 | 47 | 1011.7 |
| 20260510085453 | 64 | 285 | 0.0 | 0.0 | 0.00 | 0.00 | 0.00 | 47 | 1011.9 |
| 20260510084949 | 64 | 229 | 0.0 | 0.0 | 0.00 | 0.00 | 0.00 | 47 | 1011.8 |
| 20260510084446 | 64 | 229 | 0.0 | 0.0 | 0.00 | 0.00 | 0.00 | 47 | 1012.0 |
| 20260510083943 | 65 | 229 | 0.0 | 0.0 | 0.00 | 0.00 | 0.00 | 45 | 1011.9 |
| 20260510083439 | 65 | 228 | 0.0 | 0.0 | 0.00 | 0.00 | 0.00 | 45 | 1011.8 |
| 20260510082935 | 65 | 221 | 1.0 | 1.0 | 0.00 | 0.00 | 0.00 | 44 | 1012.0 |
| 20260510082433 | 66 | 230 | 0.0 | 0.0 | 0.00 | 0.00 | 0.00 | 44 | 1011.8 |
| 20260510081932 | 66 | 215 | 0.0 | 0.0 | 0.00 | 0.00 | 0.00 | 44 | 1011.9 |
| 20260510081428 | 66 | 238 | 0.0 | 0.0 | 0.00 | 0.00 | 0.00 | 44 | 1012.0 |
| 20260510080924 | 66 | 225 | 0.0 | 0.0 | 0.00 | 0.00 | 0.00 | 45 | 1012.1 |
| 20260510080423 | 67 | 236 | 0.0 | 0.0 | 0.00 | 0.00 | 0.00 | 44 | 1012.1 |
| 20260510075920 | 67 | 221 | 0.0 | 0.0 | 0.00 | 0.00 | 0.00 | 41 | 1012.1 |
| 20260510075418 | 68 | 223 | 0.0 | 0.0 | 0.00 | 0.00 | 0.00 | 41 | 1011.9 |
| 20260510074914 | 68 | 224 | 0.0 | 0.0 | 0.00 | 0.00 | 0.00 | 40 | 1012.2 |
| 20260510074412 | 70 | 31 | 2.0 | 2.0 | 0.00 | 0.00 | 0.00 | 33 | 1012.1 |
| 20260510073908 | 70 | 236 | 1.0 | 1.0 | 0.00 | 0.00 | 0.00 | 34 | 1012.1 |
| 20260510073403 | 70 | 217 | 2.0 | 2.0 | 0.00 | 0.00 | 0.00 | 34 | 1012.5 |
| 20260510072900 | 71 | 214 | 1.0 | 1.0 | 0.00 | 0.00 | 0.00 | 36 | 1012.4 |
| 20260510072357 | 70 | 216 | 1.0 | 1.0 | 0.00 | 0.00 | 0.00 | 36 | 1012.4 |
| 20260510071852 | 70 | 230 | 0.0 | 0.0 | 0.00 | 0.00 | 0.00 | 37 | 1012.2 |
| 20260510071349 | 71 | 229 | 0.0 | 0.0 | 0.00 | 0.00 | 0.00 | 37 | 1012.4 |
| 20260510070848 | 72 | 136 | 1.0 | 2.0 | 0.00 | 0.00 | 0.00 | 35 | 1012.6 |
| 20260510070345 | 72 | 268 | 1.0 | 1.0 | 0.00 | 0.00 | 0.00 | 33 | 1012.2 |
| 20260510065844 | 73 | 288 | 1.0 | 1.0 | 0.00 | 0.00 | 0.00 | 34 | 1012.5 |
| 20260510065342 | 74 | 271 | 1.0 | 1.0 | 0.00 | 0.00 | 0.00 | 32 | 1012.4 |
| 20260510064838 | 74 | 242 | 2.0 | 2.0 | 0.00 | 0.00 | 0.00 | 32 | 1012.4 |
| 20260510064336 | 74 | 226 | 4.0 | 6.0 | 0.00 | 0.00 | 0.00 | 32 | 1012.4 |
| 20260510063832 | 74 | 242 | 6.0 | 7.0 | 0.00 | 0.00 | 0.00 | 32 | 1012.2 |
| 20260510063329 | 75 | 242 | 5.0 | 7.0 | 0.00 | 0.00 | 0.00 | 34 | 1012.2 |
| 20260510062826 | 74 | 245 | 5.0 | 6.0 | 0.00 | 0.00 | 0.00 | 35 | 1012.2 |
| 20260510062321 | 74 | 245 | 7.0 | 9.0 | 0.00 | 0.00 | 0.00 | 35 | 1012.0 |
| 20260510061816 | 75 | 251 | 8.0 | 9.0 | 0.00 | 0.00 | 0.00 | 35 | 1012.2 |
| 20260510061314 | 75 | 243 | 9.0 | 10.0 | 0.00 | 0.00 | 0.00 | 36 | 1012.4 |
| 20260510060810 | 75 | 251 | 10.0 | 11.0 | 0.00 | 0.00 | 0.00 | 36 | 1012.1 |
| 20260510060307 | 75 | 244 | 9.0 | 10.0 | 0.00 | 0.00 | 0.00 | 35 | 1012.4 |
| 20260510055803 | 75 | 244 | 5.0 | 6.0 | 0.00 | 0.00 | 0.00 | 36 | 1012.5 |
| 20260510055306 | 74 | 268 | 3.0 | 5.0 | 0.00 | 0.00 | 0.00 | 37 | 1012.1 |
| 20260510054801 | 75 | 274 | 6.0 | 8.0 | 0.00 | 0.00 | 0.00 | 37 | 1012.4 |
| 20260510054257 | 74 | 245 | 6.0 | 7.0 | 0.00 | 0.00 | 0.00 | 38 | 1012.2 |
| 20260510053752 | 75 | 261 | 7.0 | 8.0 | 0.00 | 0.00 | 0.00 | 38 | 1012.4 |
| 20260510053248 | 74 | 263 | 7.0 | 8.0 | 0.00 | 0.00 | 0.00 | 39 | 1012.5 |
| 20260510052744 | 74 | 242 | 9.0 | 11.0 | 0.00 | 0.00 | 0.00 | 39 | 1012.5 |
| 20260510052240 | 74 | 236 | 7.0 | 9.0 | 0.00 | 0.00 | 0.00 | 39 | 1012.2 |
| 20260510051736 | 74 | 161 | 3.0 | 5.0 | 0.00 | 0.00 | 0.00 | 38 | 1012.1 |
| 20260510051233 | 74 | 258 | 5.0 | 8.0 | 0.00 | 0.00 | 0.00 | 38 | 1012.2 |
| 20260510050730 | 74 | 271 | 8.0 | 10.0 | 0.00 | 0.00 | 0.00 | 37 | 1012.5 |
| 20260510050227 | 74 | 257 | 9.0 | 11.0 | 0.00 | 0.00 | 0.00 | 37 | 1012.4 |
| 20260510045724 | 74 | 255 | 14.0 | 21.0 | 0.00 | 0.00 | 0.00 | 37 | 1012.2 |
| 20260510045220 | 75 | 236 | 12.0 | 14.0 | 0.00 | 0.00 | 0.00 | 36 | 1012.4 |
| 20260510044717 | 74 | 242 | 9.0 | 10.0 | 0.00 | 0.00 | 0.00 | 36 | 1012.2 |
| 20260510044215 | 75 | 244 | 5.0 | 6.0 | 0.00 | 0.00 | 0.00 | 34 | 1012.4 |
| 20260510043710 | 75 | 240 | 3.0 | 3.0 | 0.00 | 0.00 | 0.00 | 33 | 1012.6 |
| 20260510043207 | 76 | 253 | 5.0 | 6.0 | 0.00 | 0.00 | 0.00 | 30 | 1012.4 |
| 20260510042704 | 76 | 348 | 13.0 | 16.0 | 0.00 | 0.00 | 0.00 | 29 | 1012.4 |
| 20260510042200 | 76 | 288 | 8.0 | 9.0 | 0.00 | 0.00 | 0.00 | 30 | 1012.6 |
| 20260510041657 | 76 | 288 | 3.0 | 5.0 | 0.00 | 0.00 | 0.00 | 30 | 1012.4 |
| 20260510041154 | 76 | 1 | 6.0 | 9.0 | 0.00 | 0.00 | 0.00 | 31 | 1012.2 |
| 20260510040651 | 75 | 247 | 6.0 | 9.0 | 0.00 | 0.00 | 0.00 | 30 | 1012.1 |
| 20260510040148 | 76 | 173 | 13.0 | 15.0 | 0.00 | 0.00 | 0.00 | 32 | 1011.9 |
| 20260510035643 | 77 | 262 | 11.0 | 14.0 | 0.00 | 0.00 | 0.00 | 32 | 1012.0 |
| 20260510035139 | 77 | 269 | 10.0 | 13.0 | 0.00 | 0.00 | 0.00 | 30 | 1011.9 |
| 20260510034636 | 76 | 233 | 4.0 | 5.0 | 0.00 | 0.00 | 0.00 | 35 | 1011.9 |
| 20260510034133 | 76 | 201 | 3.0 | 5.0 | 0.00 | 0.00 | 0.00 | 36 | 1011.9 |
| 20260510033629 | 76 | 224 | 9.0 | 13.0 | 0.00 | 0.00 | 0.00 | 34 | 1012.0 |
| 20260510033127 | 75 | 281 | 8.0 | 15.0 | 0.00 | 0.00 | 0.00 | 34 | 1011.6 |
| 20260510032623 | 75 | 85 | 6.0 | 7.0 | 0.00 | 0.00 | 0.00 | 38 | 1011.5 |
| 20260510032119 | 75 | 325 | 4.0 | 5.0 | 0.00 | 0.00 | 0.00 | 43 | 1011.5 |
| 20260510031614 | 75 | 2 | 11.0 | 13.0 | 0.00 | 0.00 | 0.00 | 46 | 1011.3 |
| 20260510031111 | 74 | 20 | 8.0 | 9.0 | 0.00 | 0.00 | 0.00 | 47 | 1011.2 |
| 20260510030605 | 74 | 283 | 7.0 | 8.0 | 0.00 | 0.00 | 0.00 | 45 | 1011.2 |
| 20260510030103 | 74 | 7 | 10.0 | 11.0 | 0.00 | 0.00 | 0.00 | 47 | 1011.1 |
| 20260510025600 | 75 | 300 | 7.0 | 8.0 | 0.00 | 0.00 | 0.00 | 48 | 1011.0 |
| 20260510025058 | 75 | 123 | 7.0 | 8.0 | 0.00 | 0.00 | 0.00 | 46 | 1010.7 |
| 20260510024554 | 76 | 87 | 7.0 | 8.0 | 0.00 | 0.00 | 0.00 | 45 | 1010.9 |
| 20260510024050 | 76 | 95 | 10.0 | 14.0 | 0.00 | 0.00 | 0.00 | 45 | 1010.7 |
| 20260510023547 | 77 | 246 | 3.0 | 3.0 | 0.00 | 0.00 | 0.00 | 42 | 1010.6 |
| 20260510023045 | 77 | 188 | 9.0 | 11.0 | 0.00 | 0.00 | 0.00 | 44 | 1010.5 |
| 20260510022543 | 77 | 237 | 10.0 | 11.0 | 0.00 | 0.00 | 0.00 | 44 | 1010.4 |
| 20260510022038 | 77 | 214 | 14.0 | 17.0 | 0.00 | 0.00 | 0.00 | 43 | 1010.4 |
| 20260510021535 | 78 | 219 | 17.0 | 20.0 | 0.00 | 0.00 | 0.00 | 43 | 1010.3 |
| 20260510021032 | 78 | 227 | 17.0 | 21.0 | 0.00 | 0.00 | 0.00 | 43 | 1010.1 |
| 20260510020526 | 78 | 247 | 22.0 | 25.0 | 0.00 | 0.00 | 0.00 | 43 | 1010.0 |
| 20260510020022 | 78 | 238 | 16.0 | 20.0 | 0.00 | 0.00 | 0.00 | 43 | 1010.1 |
| 20260510015518 | 79 | 270 | 20.0 | 24.0 | 0.00 | 0.00 | 0.00 | 43 | 1009.9 |
| 20260510015014 | 79 | 238 | 21.0 | 26.0 | 0.00 | 0.00 | 0.00 | 43 | 1010.2 |
| 20260510014511 | 80 | 239 | 19.0 | 23.0 | 0.00 | 0.00 | 0.00 | 41 | 1010.0 |
| 20260510014008 | 80 | 163 | 12.0 | 17.0 | 0.00 | 0.00 | 0.00 | 40 | 1010.1 |
| 20260510013503 | 80 | 255 | 13.0 | 16.0 | 0.00 | 0.00 | 0.00 | 40 | 1009.8 |
| 20260510012959 | 81 | 225 | 12.0 | 14.0 | 0.00 | 0.00 | 0.00 | 40 | 1010.1 |
| 20260510012453 | 81 | 221 | 13.0 | 15.0 | 0.00 | 0.00 | 0.00 | 39 | 1010.1 |
| 20260510011948 | 81 | 235 | 15.0 | 18.0 | 0.00 | 0.00 | 0.00 | 39 | 1010.1 |
| 20260510011443 | 82 | 248 | 20.0 | 23.0 | 0.00 | 0.00 | 0.00 | 38 | 1009.9 |
| 20260510010940 | 82 | 238 | 14.0 | 17.0 | 0.00 | 0.00 | 0.00 | 38 | 1010.0 |
| 20260510010437 | 82 | 189 | 13.0 | 17.0 | 0.00 | 0.00 | 0.00 | 38 | 1010.1 |
| 20260510005934 | 82 | 234 | 19.0 | 23.0 | 0.00 | 0.00 | 0.00 | 38 | 1009.9 |
| 20260510005430 | 83 | 236 | 11.0 | 14.0 | 0.00 | 0.00 | 0.00 | 38 | 1009.9 |
| 20260510004927 | 83 | 233 | 19.0 | 21.0 | 0.00 | 0.00 | 0.00 | 38 | 1010.1 |
| 20260510004424 | 83 | 272 | 18.0 | 21.0 | 0.00 | 0.00 | 0.00 | 37 | 1009.9 |
| 20260510003923 | 83 | 236 | 13.0 | 15.0 | 0.00 | 0.00 | 0.00 | 37 | 1010.0 |
| 20260510003419 | 84 | 223 | 15.0 | 16.0 | 0.00 | 0.00 | 0.00 | 37 | 1009.9 |
| 20260510002918 | 84 | 240 | 19.0 | 25.0 | 0.00 | 0.00 | 0.00 | 37 | 1010.0 |
| 20260510002416 | 84 | 225 | 18.0 | 21.0 | 0.00 | 0.00 | 0.00 | 36 | 1010.1 |
| 20260510001912 | 84 | 236 | 14.0 | 18.0 | 0.00 | 0.00 | 0.00 | 37 | 1010.0 |
| 20260510001410 | 84 | 222 | 15.0 | 18.0 | 0.00 | 0.00 | 0.00 | 36 | 1009.9 |
| 20260510000906 | 84 | 221 | 14.0 | 17.0 | 0.00 | 0.00 | 0.00 | 36 | 1010.2 |
| 20260510000404 | 84 | 277 | 18.0 | 21.0 | 0.00 | 0.00 | 0.00 | 37 | 1010.1 |
| 20260509235859 | 85 | 253 | 11.0 | 14.0 | 0.00 | 0.00 | 0.00 | 35 | 1009.9 |
| 20260509235356 | 85 | 242 | 17.0 | 18.0 | 0.00 | 0.00 | 0.00 | 36 | 1010.0 |
| 20260509234852 | 86 | 257 | 16.0 | 17.0 | 0.00 | 0.00 | 0.00 | 35 | 1010.1 |
| 20260509234350 | 86 | 250 | 10.0 | 11.0 | 0.00 | 0.00 | 0.00 | 35 | 1009.9 |
| 20260509233848 | 86 | 258 | 19.0 | 21.0 | 0.00 | 0.00 | 0.00 | 34 | 1010.1 |
| 20260509233345 | 86 | 251 | 18.0 | 22.0 | 0.00 | 0.00 | 0.00 | 33 | 1010.1 |
| 20260509232840 | 86 | 239 | 14.0 | 15.0 | 0.00 | 0.00 | 0.00 | 33 | 1009.8 |
| 20260509232339 | 87 | 257 | 11.0 | 13.0 | 0.00 | 0.00 | 0.00 | 33 | 1010.1 |
| 20260509231834 | 86 | 239 | 17.0 | 20.0 | 0.00 | 0.00 | 0.00 | 33 | 1010.3 |
| 20260509231332 | 86 | 236 | 16.0 | 18.0 | 0.00 | 0.00 | 0.00 | 33 | 1010.2 |
| 20260509230829 | 86 | 226 | 17.0 | 20.0 | 0.00 | 0.00 | 0.00 | 31 | 1010.3 |
| 20260509230326 | 87 | 242 | 13.0 | 15.0 | 0.00 | 0.00 | 0.00 | 31 | 1010.3 |
| 20260509225821 | 87 | 264 | 13.0 | 15.0 | 0.00 | 0.00 | 0.00 | 31 | 1010.1 |
| 20260509225318 | 87 | 245 | 16.0 | 23.0 | 0.00 | 0.00 | 0.00 | 30 | 1010.2 |
| 20260509224814 | 87 | 241 | 15.0 | 18.0 | 0.00 | 0.00 | 0.00 | 30 | 1010.2 |
| 20260509224311 | 87 | 238 | 15.0 | 16.0 | 0.00 | 0.00 | 0.00 | 29 | 1010.4 |
| 20260509223807 | 88 | 267 | 15.0 | 17.0 | 0.00 | 0.00 | 0.00 | 29 | 1010.3 |
| 20260509223304 | 88 | 272 | 14.0 | 17.0 | 0.00 | 0.00 | 0.00 | 28 | 1010.5 |
| 20260509222801 | 88 | 251 | 13.0 | 15.0 | 0.00 | 0.00 | 0.00 | 27 | 1010.6 |
| 20260509222256 | 88 | 252 | 15.0 | 18.0 | 0.00 | 0.00 | 0.00 | 27 | 1010.5 |
| 20260509221753 | 88 | 236 | 10.0 | 13.0 | 0.00 | 0.00 | 0.00 | 27 | 1010.5 |
| 20260509221249 | 88 | 223 | 13.0 | 15.0 | 0.00 | 0.00 | 0.00 | 27 | 1010.7 |
| 20260509220745 | 89 | 231 | 12.0 | 14.0 | 0.00 | 0.00 | 0.00 | 26 | 1010.7 |
| 20260509220242 | 89 | 223 | 11.0 | 14.0 | 0.00 | 0.00 | 0.00 | 25 | 1010.7 |
| 20260509215737 | 89 | 226 | 12.0 | 13.0 | 0.00 | 0.00 | 0.00 | 25 | 1010.9 |
| 20260509215234 | 89 | 256 | 15.0 | 17.0 | 0.00 | 0.00 | 0.00 | 25 | 1011.0 |
| 20260509214731 | 89 | 249 | 14.0 | 17.0 | 0.00 | 0.00 | 0.00 | 25 | 1010.9 |
| 20260509214228 | 90 | 228 | 12.0 | 15.0 | 0.00 | 0.00 | 0.00 | 24 | 1010.7 |
| 20260509213725 | 91 | 252 | 12.0 | 16.0 | 0.00 | 0.00 | 0.00 | 21 | 1010.9 |
| 20260509213220 | 89 | 255 | 9.0 | 10.0 | 0.00 | 0.00 | 0.00 | 25 | 1011.0 |
| 20260509212718 | 90 | 244 | 10.0 | 15.0 | 0.00 | 0.00 | 0.00 | 22 | 1011.1 |
| 20260509212215 | 90 | 248 | 12.0 | 14.0 | 0.00 | 0.00 | 0.00 | 22 | 1011.1 |
| 20260509211711 | 92 | 255 | 3.0 | 7.0 | 0.00 | 0.00 | 0.00 | 21 | 1011.2 |
| 20260509211208 | 94 | 231 | 0.0 | 0.0 | 0.00 | 0.00 | 0.00 | 13 | 1011.3 |
| 20260509210704 | 91 | 60 | 4.0 | 6.0 | 0.00 | 0.00 | 0.00 | 14 | 1011.1 |
| 20260509210202 | 94 | 96 | 6.0 | 9.0 | 0.00 | 0.00 | 0.00 | 14 | 1011.3 |
| 20260509205701 | 92 | 120 | 4.0 | 5.0 | 0.00 | 0.00 | 0.00 | 14 | 1011.4 |
| 20260509205201 | 94 | 123 | 3.0 | 3.0 | 0.00 | 0.00 | 0.00 | 13 | 1011.5 |
| 20260509204657 | 92 | 201 | 0.0 | 1.0 | 0.00 | 0.00 | 0.00 | 15 | 1011.4 |
| 20260509204154 | 90 | 122 | 1.0 | 2.0 | 0.00 | 0.00 | 0.00 | 15 | 1011.5 |
| 20260509203650 | 91 | 122 | 5.0 | 8.0 | 0.00 | 0.00 | 0.00 | 17 | 1011.5 |
| 20260509203148 | 92 | 50 | 3.0 | 6.0 | 0.00 | 0.00 | 0.00 | 16 | 1011.8 |
| 20260509202643 | 91 | 232 | 0.0 | 1.0 | 0.00 | 0.00 | 0.00 | 15 | 1011.9 |
| 20260509202138 | 90 | 162 | 2.0 | 3.0 | 0.00 | 0.00 | 0.00 | 16 | 1011.6 |
| 20260509201634 | 91 | 148 | 2.0 | 3.0 | 0.00 | 0.00 | 0.00 | 15 | 1011.7 |
| 20260509201132 | 91 | 197 | 3.0 | 3.0 | 0.00 | 0.00 | 0.00 | 15 | 1011.8 |
| 20260509200627 | 89 | 97 | 3.0 | 3.0 | 0.00 | 0.00 | 0.00 | 16 | 1011.8 |
| 20260509200123 | 91 | 151 | 1.0 | 2.0 | 0.00 | 0.00 | 0.00 | 16 | 1011.9 |
| 20260509195619 | 91 | 195 | 2.0 | 2.0 | 0.00 | 0.00 | 0.00 | 16 | 1011.9 |
| 20260509195114 | 88 | 177 | 2.0 | 2.0 | 0.00 | 0.00 | 0.00 | 16 | 1012.0 |
| 20260509194613 | 89 | 224 | 2.0 | 2.0 | 0.00 | 0.00 | 0.00 | 16 | 1012.0 |
| 20260509194111 | 90 | 189 | 4.0 | 5.0 | 0.00 | 0.00 | 0.00 | 16 | 1012.1 |
| 20260509193607 | 89 | 152 | 6.0 | 7.0 | 0.00 | 0.00 | 0.00 | 16 | 1012.1 |
| 20260509193103 | 90 | 164 | 5.0 | 7.0 | 0.00 | 0.00 | 0.00 | 16 | 1012.0 |
| 20260509192600 | 88 | 142 | 3.0 | 6.0 | 0.00 | 0.00 | 0.00 | 17 | 1012.5 |
| 20260509192055 | 88 | 193 | 5.0 | 6.0 | 0.00 | 0.00 | 0.00 | 17 | 1012.2 |
| 20260509191555 | 90 | 224 | 1.0 | 1.0 | 0.00 | 0.00 | 0.00 | 17 | 1012.4 |
| 20260509191051 | 90 | 208 | 3.0 | 3.0 | 0.00 | 0.00 | 0.00 | 16 | 1012.5 |
| 20260509190548 | 90 | 318 | 0.0 | 1.0 | 0.00 | 0.00 | 0.00 | 17 | 1012.4 |
| 20260509190046 | 89 | 201 | 2.0 | 2.0 | 0.00 | 0.00 | 0.00 | 17 | 1012.7 |
| 20260509185543 | 87 | 170 | 3.0 | 5.0 | 0.00 | 0.00 | 0.00 | 16 | 1012.8 |
| 20260509185039 | 87 | 22 | 3.0 | 5.0 | 0.00 | 0.00 | 0.00 | 17 | 1013.0 |
| 20260509184538 | 87 | 252 | 1.0 | 2.0 | 0.00 | 0.00 | 0.00 | 17 | 1012.6 |
| 20260509184033 | 88 | 235 | 5.0 | 6.0 | 0.00 | 0.00 | 0.00 | 16 | 1012.9 |
| 20260509183529 | 87 | 156 | 2.0 | 3.0 | 0.00 | 0.00 | 0.00 | 17 | 1012.9 |
| 20260509183025 | 86 | 249 | 0.0 | 1.0 | 0.00 | 0.00 | 0.00 | 16 | 1013.0 |
| 20260509182521 | 87 | 79 | 5.0 | 7.0 | 0.00 | 0.00 | 0.00 | 18 | 1012.8 |
| 20260509182019 | 86 | 148 | 5.0 | 6.0 | 0.00 | 0.00 | 0.00 | 16 | 1013.0 |
| 20260509181517 | 86 | 238 | 1.0 | 1.0 | 0.00 | 0.00 | 0.00 | 18 | 1012.9 |
| 20260509181014 | 87 | 208 | 3.0 | 3.0 | 0.00 | 0.00 | 0.00 | 16 | 1013.2 |
| 20260509180509 | 86 | 202 | 2.0 | 2.0 | 0.00 | 0.00 | 0.00 | 16 | 1012.9 |
| 20260509180008 | 86 | 183 | 1.0 | 1.0 | 0.00 | 0.00 | 0.00 | 16 | 1013.1 |
| 20260509175502 | 85 | 167 | 2.0 | 2.0 | 0.00 | 0.00 | 0.00 | 16 | 1013.1 |
| 20260509174959 | 84 | 81 | 2.0 | 5.0 | 0.00 | 0.00 | 0.00 | 17 | 1013.1 |
| 20260509174456 | 83 | 64 | 2.0 | 2.0 | 0.00 | 0.00 | 0.00 | 18 | 1013.3 |
| 20260509173950 | 85 | 205 | 0.0 | 1.0 | 0.00 | 0.00 | 0.00 | 17 | 1013.2 |
| 20260509173445 | 85 | 207 | 2.0 | 2.0 | 0.00 | 0.00 | 0.00 | 17 | 1013.4 |
| 20260509172942 | 85 | 134 | 3.0 | 3.0 | 0.00 | 0.00 | 0.00 | 17 | 1013.2 |
| 20260509172439 | 85 | 222 | 1.0 | 2.0 | 0.00 | 0.00 | 0.00 | 17 | 1013.1 |
| 20260509171934 | 83 | 134 | 1.0 | 2.0 | 0.00 | 0.00 | 0.00 | 18 | 1013.1 |
| 20260509171431 | 84 | 211 | 1.0 | 2.0 | 0.00 | 0.00 | 0.00 | 18 | 1013.4 |
| 20260509170927 | 83 | 195 | 2.0 | 2.0 | 0.00 | 0.00 | 0.00 | 18 | 1013.3 |
| 20260509170423 | 83 | 156 | 3.0 | 5.0 | 0.00 | 0.00 | 0.00 | 18 | 1013.1 |
| 20260509165919 | 83 | 196 | 0.0 | 1.0 | 0.00 | 0.00 | 0.00 | 18 | 1013.1 |
| 20260509165413 | 82 | 231 | 0.0 | 0.0 | 0.00 | 0.00 | 0.00 | 18 | 1013.0 |
| 20260509164909 | 82 | 183 | 2.0 | 2.0 | 0.00 | 0.00 | 0.00 | 18 | 1013.1 |
| 20260509164405 | 81 | 210 | 1.0 | 1.0 | 0.00 | 0.00 | 0.00 | 20 | 1013.2 |
| 20260509163901 | 80 | 94 | 1.0 | 2.0 | 0.00 | 0.00 | 0.00 | 20 | 1013.4 |
| 20260509163358 | 79 | 241 | 0.0 | 1.0 | 0.00 | 0.00 | 0.00 | 20 | 1013.1 |
| 20260509162857 | 80 | 35 | 1.0 | 1.0 | 0.00 | 0.00 | 0.00 | 20 | 1013.3 |
| 20260509162356 | 79 | 242 | 1.0 | 1.0 | 0.00 | 0.00 | 0.00 | 21 | 1013.2 |
| 20260509161852 | 79 | 300 | 1.0 | 2.0 | 0.00 | 0.00 | 0.00 | 23 | 1013.0 |
| 20260509161348 | 79 | 32 | 1.0 | 1.0 | 0.00 | 0.00 | 0.00 | 24 | 1013.0 |
| 20260509160844 | 78 | 44 | 3.0 | 3.0 | 0.00 | 0.00 | 0.00 | 24 | 1012.9 |
| 20260509160340 | 79 | 108 | 3.0 | 3.0 | 0.00 | 0.00 | 0.00 | 21 | 1013.1 |
| 20260509155835 | 78 | 224 | 0.0 | 0.0 | 0.00 | 0.00 | 0.00 | 20 | 1013.2 |
| 20260509155332 | 78 | 134 | 2.0 | 2.0 | 0.00 | 0.00 | 0.00 | 20 | 1013.3 |
| 20260509154828 | 77 | 304 | 2.0 | 2.0 | 0.00 | 0.00 | 0.00 | 20 | 1013.3 |
| 20260509154325 | 77 | 359 | 3.0 | 3.0 | 0.00 | 0.00 | 0.00 | 21 | 1013.2 |
| 20260509153822 | 77 | 232 | 2.0 | 2.0 | 0.00 | 0.00 | 0.00 | 20 | 1013.2 |
| 20260509153318 | 76 | 355 | 3.0 | 3.0 | 0.00 | 0.00 | 0.00 | 21 | 1013.2 |
| 20260509152815 | 78 | 322 | 3.0 | 3.0 | 0.00 | 0.00 | 0.00 | 22 | 1013.3 |
| 20260509152311 | 76 | 219 | 0.0 | 0.0 | 0.00 | 0.00 | 0.00 | 24 | 1013.4 |
| 20260509151809 | 76 | 251 | 1.0 | 1.0 | 0.00 | 0.00 | 0.00 | 26 | 1013.4 |
| 20260509151305 | 76 | 275 | 2.0 | 2.0 | 0.00 | 0.00 | 0.00 | 25 | 1013.3 |
| 20260509150804 | 75 | 95 | 1.0 | 2.0 | 0.00 | 0.00 | 0.00 | 28 | 1013.1 |
| 20260509150301 | 73 | 216 | 1.0 | 1.0 | 0.00 | 0.00 | 0.00 | 27 | 1013.1 |
| 20260509145758 | 73 | 214 | 3.0 | 3.0 | 0.00 | 0.00 | 0.00 | 30 | 1013.3 |
| 20260509145257 | 73 | 200 | 3.0 | 3.0 | 0.00 | 0.00 | 0.00 | 31 | 1013.2 |
| 20260509144754 | 72 | 203 | 2.0 | 2.0 | 0.00 | 0.00 | 0.00 | 31 | 1013.5 |
| 20260509144251 | 71 | 206 | 1.0 | 1.0 | 0.00 | 0.00 | 0.00 | 33 | 1013.5 |
| 20260509143748 | 71 | 193 | 1.0 | 2.0 | 0.00 | 0.00 | 0.00 | 32 | 1013.6 |
| 20260509143246 | 70 | 209 | 1.0 | 1.0 | 0.00 | 0.00 | 0.00 | 35 | 1013.8 |
| 20260509142742 | 69 | 213 | 1.0 | 1.0 | 0.00 | 0.00 | 0.00 | 40 | 1013.5 |
| 20260509142238 | 68 | 213 | 1.0 | 1.0 | 0.00 | 0.00 | 0.00 | 32 | 1013.5 |
| 20260509141734 | 67 | 232 | 0.0 | 1.0 | 0.00 | 0.00 | 0.00 | 40 | 1013.4 |
| 20260509141231 | 66 | 193 | 2.0 | 2.0 | 0.00 | 0.00 | 0.00 | 39 | 1013.8 |
| 20260509140728 | 65 | 223 | 1.0 | 1.0 | 0.00 | 0.00 | 0.00 | 37 | 1013.5 |
| 20260509140225 | 64 | 240 | 1.0 | 1.0 | 0.00 | 0.00 | 0.00 | 39 | 1013.6 |
| 20260509135722 | 64 | 202 | 2.0 | 2.0 | 0.00 | 0.00 | 0.00 | 38 | 1013.3 |
| 20260509135220 | 64 | 219 | 0.0 | 0.0 | 0.00 | 0.00 | 0.00 | 38 | 1013.6 |
| 20260509134717 | 63 | 233 | 2.0 | 2.0 | 0.00 | 0.00 | 0.00 | 38 | 1013.4 |
| 20260509134214 | 63 | 225 | 1.0 | 2.0 | 0.00 | 0.00 | 0.00 | 37 | 1013.4 |